Location: Vancouver
(49.2500°N, 123.1330°W)
Time: 00:46:32
(UTC-07:00)

ISS - Visible Passes

Search period start: 05 September 2015 00:00
Search period end: 15 September 2015 00:00
Orbit: 400 x 402 km, 51.6° (Epoch: 04 September)

Date Brightness Start Highest point End Pass type
(mag) Time Alt. Az. Time Alt. Az. Time Alt. Az.
10 Sep -1.5 06:01:30 10° SSW 06:04:16 26° SE 06:07:05 10° E visible
11 Sep -0.9 05:09:11 11° S 05:11:04 16° SE 05:13:13 10° E visible
12 Sep -2.6 05:50:44 11° SW 05:53:43 47° SSE 05:56:53 10° ENE visible
13 Sep -1.9 04:59:36 25° S 05:00:25 29° SE 05:03:20 10° E visible
14 Sep -0.7 04:08:25 15° ESE 04:08:25 15° ESE 04:09:32 10° E visible
14 Sep -3.3 05:41:00 19° WSW 05:43:13 79° SSE 05:46:30 10° ENE visible
